New Bern, NC

6:05 AM EDT on August 27, 2016 (GMT -0400)
Craven County Regional

Weather History for KEWN - December, 2013

Change the Weather History Date:

Saturday, December 7, 2013

  Actual Average Record
Temperature  
Mean Temperature 59 °F 49 °F  
Max Temperature 72 °F 60 °F 80 °F (1951)
Min Temperature 45 °F 38 °F 20 °F (1954)
Degree Days  
Heating Degree Days 6 16  
Month to date heating degree days 62 108  
Since 1 July heating degree days 485 535  
Cooling Degree Days 0 0  
Month to date cooling degree days 12 0  
Year to date cooling degree days 2018 1900  
Growing Degree Days 8 (Base 50)    
Moisture  
Dew Point 50 °F    
Average Humidity 82    
Maximum Humidity 93    
Minimum Humidity 71    
Precipitation  
Precipitation 0.17 in 0.11 in 1.29 in (2015)
Month to date precipitation 0.37 0.79  
Year to date precipitation 40.65 50.14  
Snow  
Snow 0.00 in - - ()
Month to date snowfall 0.0  
Since 1 July snowfall T  
Snow Depth 0.00 in    
Sea Level Pressure  
Sea Level Pressure 30.27 in    
Wind  
Wind Speed 12 mph (NNE)    
Max Wind Speed 20 mph    
Max Gust Speed 26 mph    
Visibility 9 miles    
Events Rain    
T = Trace of Precipitation, MM = Missing Value Source: NWS Daily Summary

Daily Weather History Graph

Daily Weather History Graph

Search for Another Location

Airport or City:

Trip Planner

Search our weather history database for the weather conditions in past years. The results will help you decide how hot, cold, wet, or windy it might be!

Date:

Astronomy

Dec. 07, 2013 Rise Set
Actual Time 7:03 AM EST 4:56 PM EST
Civil Twilight 6:35 AM EST 5:24 PM EST
Nautical Twilight 6:03 AM EST 5:55 PM EST
Astronomical Twilight 5:33 AM EST 6:26 PM EST
Moon 10:54 AM EST (12/7) 10:26 PM EST (12/7)
Length of Visible Light 10h 48m
Length of Day
9h 52m
Waxing Crescent, 29% of the Moon is Illuminated
Dec 7
Waxing Crescent
Dec 9
First Quarter
Dec 17
Full
Dec 25
Last Quarter
Jan 1
New

Hourly Weather History & Observations

Time (EST) Temp. Windchill Dew Point Humidity Pressure Visibility Wind Dir Wind Speed Gust Speed Precip Events Conditions
12:12 AM 71.6 °F - 66.2 °F 83% 30.09 in 10.0 mi SSW 12.7 mph 21.9 mph N/A   Mostly Cloudy
12:19 AM 71.6 °F - 66.2 °F 83% 30.09 in 10.0 mi SSW 13.8 mph 21.9 mph N/A   Scattered Clouds
12:54 AM 71.1 °F - 66.9 °F 87% 30.08 in 10.0 mi SSW 12.7 mph 23.0 mph N/A   Clear
1:26 AM 71.6 °F - 66.2 °F 83% 30.08 in 10.0 mi SSW 15.0 mph 21.9 mph N/A   Mostly Cloudy
1:54 AM 72.0 °F - 66.9 °F 84% 30.07 in 10.0 mi SSW 13.8 mph 23.0 mph N/A   Overcast
2:54 AM 71.1 °F - 66.9 °F 87% 30.08 in 10.0 mi SSW 11.5 mph - N/A   Partly Cloudy
3:54 AM 71.1 °F - 66.9 °F 87% 30.08 in 10.0 mi SW 10.4 mph - N/A   Partly Cloudy
4:54 AM 71.1 °F - 66.9 °F 87% 30.08 in 10.0 mi SSW 8.1 mph - N/A   Clear
5:54 AM 70.0 °F - 66.9 °F 90% 30.09 in 10.0 mi SW 8.1 mph - N/A   Clear
6:54 AM 70.0 °F - 66.0 °F 87% 30.10 in 10.0 mi SSW 9.2 mph - N/A   Scattered Clouds
7:54 AM 70.0 °F - 66.0 °F 87% 30.14 in 10.0 mi SW 4.6 mph - N/A   Overcast
8:18 AM 69.8 °F - 66.2 °F 88% 30.16 in 10.0 mi NNW 13.8 mph 17.3 mph N/A   Overcast
8:25 AM 64.4 °F - 60.8 °F 88% 30.17 in 10.0 mi NNW 17.3 mph 24.2 mph 0.00 in Rain Light Rain
8:38 AM 59.0 °F - 55.4 °F 88% 30.19 in 10.0 mi North 19.6 mph 26.5 mph 0.00 in Rain Light Rain
8:54 AM 57.0 °F - 54.0 °F 89% 30.22 in 6.0 mi North 13.8 mph 21.9 mph 0.01 in Rain Light Rain
9:54 AM 51.1 °F - 48.0 °F 89% 30.27 in 5.0 mi NNE 15.0 mph 26.5 mph 0.05 in Rain Heavy Rain
10:01 AM 51.8 °F - 46.4 °F 82% 30.26 in 3.0 mi NE 13.8 mph 23.0 mph 0.02 in Rain Heavy Rain
10:10 AM 50.0 °F - 46.4 °F 87% 30.26 in 4.0 mi NE 16.1 mph - 0.04 in Rain Rain
10:54 AM 48.9 °F - 45.0 °F 86% 30.30 in 10.0 mi NNE 11.5 mph - 0.05 in Rain Light Rain
11:22 AM 48.2 °F - 44.6 °F 87% 30.30 in 10.0 mi North 13.8 mph - 0.00 in Rain Light Rain
11:51 AM 48.2 °F - 44.6 °F 87% 30.29 in 10.0 mi NNE 10.4 mph - 0.00 in   Overcast
11:54 AM 48.0 °F - 44.1 °F 86% 30.29 in 10.0 mi NNE 12.7 mph - 0.00 in   Overcast
12:17 PM 46.4 °F 40.4 °F 44.6 °F 93% 30.29 in 10.0 mi NNE 13.8 mph 20.7 mph 0.00 in   Overcast
12:54 PM 46.9 °F - 44.1 °F 90% 30.28 in 10.0 mi NNE 12.7 mph - 0.00 in   Overcast
1:28 PM 46.4 °F 40.7 °F 42.8 °F 87% 30.30 in 10.0 mi NNE 12.7 mph 19.6 mph N/A   Overcast
1:54 PM 46.9 °F - 44.1 °F 90% 30.30 in 10.0 mi NNE 10.4 mph - N/A   Overcast
2:54 PM 46.9 °F - 43.0 °F 86% 30.31 in 10.0 mi NNE 11.5 mph - N/A   Overcast
3:01 PM 46.4 °F 41.9 °F 42.8 °F 87% 30.31 in 10.0 mi NNE 9.2 mph - N/A   Overcast
3:08 PM 46.4 °F 40.4 °F 42.8 °F 87% 30.31 in 10.0 mi NNE 13.8 mph 19.6 mph N/A   Overcast
3:54 PM 46.9 °F - 42.1 °F 83% 30.32 in 10.0 mi NE 15.0 mph 21.9 mph N/A   Overcast
4:01 PM 46.4 °F 40.4 °F 42.8 °F 87% 30.33 in 10.0 mi NNE 13.8 mph - N/A   Overcast
4:54 PM 46.0 °F 40.2 °F 43.0 °F 89% 30.35 in 4.0 mi NNE 12.7 mph 20.7 mph 0.00 in Rain Light Rain
5:25 PM 46.4 °F 40.4 °F 42.8 °F 87% 30.36 in 10.0 mi NNE 13.8 mph - 0.00 in   Overcast
5:39 PM 46.4 °F 40.7 °F 42.8 °F 87% 30.37 in 10.0 mi NNE 12.7 mph 20.7 mph 0.00 in   Overcast
5:54 PM 46.9 °F - 42.1 °F 83% 30.38 in 10.0 mi NNE 9.2 mph - 0.00 in   Overcast
6:20 PM 46.4 °F 39.8 °F 42.8 °F 87% 30.38 in 10.0 mi NNE 16.1 mph 20.7 mph N/A   Overcast
6:29 PM 46.4 °F 41.9 °F 41.0 °F 81% 30.39 in 10.0 mi NNE 9.2 mph 18.4 mph N/A   Overcast
6:40 PM 46.4 °F 41.1 °F 41.0 °F 81% 30.39 in 10.0 mi NNE 11.5 mph - N/A   Overcast
6:54 PM 46.9 °F - 41.0 °F 80% 30.40 in 10.0 mi NNE 15.0 mph 20.7 mph N/A   Overcast
7:16 PM 46.4 °F 40.1 °F 39.2 °F 76% 30.41 in 10.0 mi NNE 15.0 mph 21.9 mph N/A   Overcast
7:54 PM 46.0 °F 41.0 °F 41.0 °F 83% 30.42 in 10.0 mi NNE 10.4 mph - 0.06 in Rain Light Rain
8:54 PM 45.0 °F 38.5 °F 37.0 °F 74% 30.43 in 10.0 mi NNE 13.8 mph 21.9 mph 0.00 in   Overcast
9:54 PM 45.0 °F 38.9 °F 37.0 °F 74% 30.44 in 10.0 mi NNE 12.7 mph - N/A   Overcast
10:44 PM 46.4 °F 40.4 °F 37.4 °F 71% 30.45 in 10.0 mi NNE 13.8 mph 20.7 mph N/A   Overcast
10:54 PM 46.0 °F 40.6 °F 37.0 °F 71% 30.45 in 10.0 mi NNE 11.5 mph - N/A   Overcast
11:54 PM 46.0 °F 40.6 °F 37.0 °F 71% 30.43 in 10.0 mi NNE 11.5 mph - N/A   Overcast